This is the latest recevied weather packets stored in our database for station/object F1AGU-13. If no packets are shown the sender has not sent any weather packets the latest 10 day(s).
| Time | Temp. | Humidity | Pressure | Rain* | Wind** | Luminosity | Snow |
|---|---|---|---|---|---|---|---|
| 1777990516 | 13.33° C | 77% | 1011 hPa | 0 mm | - | - | - |
| 1777989916 | 14.44° C | 79% | 1011.2 hPa | 0 mm | - | - | - |
| 1777989316 | 13.33° C | 78% | 1011.2 hPa | 0 mm | - | - | - |
| 1777988716 | 13.33° C | 81% | 1011 hPa | 0 mm | - | - | - |
| 1777988116 | 13.33° C | 79% | 1011.2 hPa | 0 mm | - | - | - |
| 1777987516 | 13.33° C | 84% | 1011.4 hPa | 0 mm | - | - | - |
| 1777986916 | 12.22° C | 85% | 1011.2 hPa | 0.25 mm | - | - | - |
| 1777986316 | 11.67° C | 83% | 1011.2 hPa | 0.51 mm | - | - | - |
| 1777985716 | 11.11° C | 88% | 1011.1 hPa | 1.52 mm | - | - | - |
| 1777985116 | 10.56° C | 88% | 1011.1 hPa | 2.79 mm | - | - | - |
| 1777984518 | 10° C | 88% | 1011.1 hPa | 4.32 mm | - | - | - |
| 1777983916 | 10° C | 92% | 1011.1 hPa | 5.08 mm | - | - | - |
| 1777983316 | 8.89° C | 96% | 1011.1 hPa | 6.1 mm | - | - | - |
| 1777982716 | 8.89° C | 95% | 1011.5 hPa | 7.11 mm | - | - | - |
| 1777982116 | 8.89° C | 94% | 1011.7 hPa | 7.11 mm | - | - | - |
| 1777981516 | 8.89° C | 93% | 1011.7 hPa | 6.1 mm | - | - | - |
| 1777980916 | 8.89° C | 92% | 1011.5 hPa | 4.83 mm | - | - | - |
| 1777980316 | 8.89° C | 92% | 1011.4 hPa | 4.06 mm | - | - | - |
| 1777979716 | 9.44° C | 93% | 1011.5 hPa | 2.79 mm | - | - | - |
| 1777979116 | 9.44° C | 92% | 1011.6 hPa | 1.78 mm | - | - | - |
| 1777978516 | 9.44° C | 90% | 1011.7 hPa | 1.27 mm | - | - | - |
| 1777977919 | 10° C | 89% | 1011.6 hPa | 0.76 mm | - | - | - |
| 1777977316 | 10° C | 88% | 1011.7 hPa | 0.51 mm | - | - | - |
| 1777976716 | 10° C | 89% | 1011.6 hPa | 0.51 mm | - | - | - |
| 1777976116 | 10° C | 90% | 1011.5 hPa | 0.76 mm | - | - | - |
* Rain latest hour (hover to see other rain measurements)
** Current wind speed in m/s (hover to see current wind gust speed)